{"data":{"norad_id":65714,"epoch":"2026-09-20T21:47:43.224288Z","epoch_age_seconds":114459,"freshness":"FRESH","line1":"1 65714U 25214C   26263.90813917  .00001023  00000+0  14989-3 0  9993","line2":"2 65714  49.9838 224.8960 0009933 224.2545 135.7599 14.83618151 53718","mean_motion":14.83618151,"eccentricity":0.0009933,"inclination_deg":49.9838,"raan_deg":224.896,"arg_perigee_deg":224.2545,"mean_anomaly_deg":135.7599,"bstar":0.00014989,"rev_number":5371,"period_min":97.060015006516,"perigee_km":610.9774168331,"apogee_km":624.8757967944,"semimajor_km":6996.0636068138,"source":"CELESTRAK","updated_at":"2026-09-21T09:00:15.522224Z"}}